SONATE
1 44400U 19038Q   25098.11836752  .00137203  00000-0  11016-2 0  9997
2 44400  97.7021 117.7726 0010478 121.1177 239.1114 15.70501460319701
Taurus 1
1 44530U 19059C   25098.79434197  .00016467  00000-0  30975-2 0  9998
2 44530  98.5977 235.3287 0010394 219.9578 140.0859 14.64652787294890
Duchifat 3
1 44854U 19089C   25098.14611311  .00069250  00000-0  16640-2 0  9995
2 44854  36.9467  30.4622 0002624 327.3876  32.6716 15.40238161293368
TO-108
1 44881U 19093C   25098.79310617  .00002052  00000-0  24393-3 0  9998
2 44881  97.7949 175.7345 0015247  76.6515 283.6399 14.85418349286905
FloripaSat 1
1 44885U 19093G   25098.83080144  .00011664  00000-0  10028-2 0  9994
2 44885  97.8148 186.3473 0010799  57.4285 302.7978 14.97528273287503
RS-44
1 44909U 19096E   25098.87040883  .00000034  00000-0  83480-4 0  9997
2 44909  82.5169 268.2828 0218449  79.9591 282.6080 12.79740013246847
UPMSat 2
1 46276U 20061E   25098.77474458  .00074064  00000-0  91037-3 0  9998
2 46276  97.2505 171.4505 0001853 145.0797 215.0582 15.60032682255804
SALSAT
1 46495U 20068K   25098.49677761  .00014369  00000-0  63975-3 0  9991
2 46495  97.8558  73.7256 0012603  27.9225 332.2683 15.21508891249081
CubeSX-Sirius-HSE
1 47951U 21022V   25098.85584824  .00201697  00000-0  18296-2 0  9994
2 47951  97.4240   8.4878 0010208 134.7173 225.4921 15.67328741224092
CubeSX-HSE
1 47952U 21022W   25098.88072665  .00198952  00000-0  17638-2 0  9991
2 47952  97.4245   8.7415 0010256 131.0425 229.1724 15.67903738224111
GRBAlpha
1 47959U 21022AD  25098.85105135  .00195657  00000-0  17659-2 0  9996
2 47959  97.4231   8.8405 0010065 134.2078 226.0011 15.67473555222932
Orbicraft-Zorkiy
1 47960U 21022AE  25098.85367282  .01916155  31182-2  21607-2 0  9991
2 47960  97.4129  13.4515 0008797 151.5899 208.5866 16.10031606223891
TUBIN
1 48900U 21059X   25098.79367778  .00069400  00000-0  10632-2 0  9999
2 48900  97.6714 263.2986 0003596 121.4405 238.7200 15.54103018210422
LEDSAT
1 49069U 21073D   25098.78299656  .00073528  00000-0  12143-2 0  9995
2 49069  97.3941 178.1250 0010613 295.7903  64.2254 15.51942003201829
CUTE
1 49263U 21088D   25098.14509393  .00020792  00000-0  45352-3 0  9993
2 49263  97.4548 172.6992 0010113 111.6435 248.5892 15.44208054194786
TeikyoSat 4
1 49396U 21102B   25098.48817621  .00003406  00000-0  22940-3 0  9991
2 49396  97.4182 139.1465 0012180 355.1410   4.9698 15.07278766187195
Z-Sat
1 49399U 21102E   25098.89286697  .00007405  00000-0  41331-3 0  9990
2 49399  97.3881 142.2649 0016955 322.0067  37.9968 15.13706063187646
KOSEN 1
1 49402U 21102H   25098.84698608  .00012327  00000-0  58729-3 0  9997
2 49402  97.3792 145.1861 0014407 296.7227  63.2532 15.19173012187912
HO-113
1 50466U 21131B   25098.81372915  .00001273  00000-0  41224-3 0  9998
2 50466  98.5083 188.4809 0003324 335.6166  24.4864 14.40704508172557
IRIS-A
1 51044U 22002BN  25098.12305867  .00202166  00000-0  14803-2 0  9991
2 51044  97.3308 175.2000 0000383 169.5243 190.6029 15.72581834179991
Foresail-1
1 52766U 22057AL  25098.38430394  .00162398  00000-0  13142-2 0  9992
2 52766  97.6027 243.8438 0004213 187.4789 172.6411 15.70294262160068
SNUGLITE 2
1 52899U 22065F   25098.39395993  .00002937  00000-0  58223-3 0  9996
2 52899  98.1578 241.0143 0006544 313.3980  46.6677 14.62982162147395
IO-117
1 53106U 22080B   25051.21822557 -.00000003  00000-0  00000+0 0  9995
2 53106  70.1434 106.3440 0008542  48.0089 312.1297  6.42557744 61200
UmKA 1 (RS40S)
1 57172U 23091G   25098.84940293  .00011491  00000-0  62764-3 0  9994
2 57172  97.5654 154.5694 0015047 182.0523 178.0650 15.14384035 98134
CubeBel-2 (EU11S)
1 57175U 23091K   25098.89690160  .00017623  00000-0  87358-3 0  9996
2 57175  97.5657 155.4155 0012904 189.9313 170.1667 15.17732723 98195
VERONIKA
1 58261U 23174F   25098.85247832  .00126114  00000-0  18561-2 0  9990
2 58261  97.4177 182.0514 0007326 252.4016 107.6438 15.54973108 79040
ENSO
1 58470U 23185J   25098.88586120  .00070185  00000-0  13117-2 0  9991
2 58470  97.3788 172.3390 0006530 292.4637  67.5922 15.48481283 75467
EIRSAT-1
1 58472U 23185L   25098.86197454  .00108711  00000-0  16048-2 0  9992
2 58472  97.3767 173.3927 0005879 286.4052  73.6555 15.54963607 75532
SONATE-2
1 59112U 24043Q   25098.61450196  .00028370  00000-0  88624-3 0  9998
2 59112  97.5033 228.6956 0010598 336.5062  23.5694 15.33088952 60833
MO-122
1 60209U 24125G   25098.51042865  .00028605  00000-0  88170-3 0  9994
2 60209  97.2886 310.9040 0019665   4.2600 355.8807 15.33373505 42439
GRBBeta
1 60237U 24128C   25097.97054232  .00007282  00000-0  55715-3 0  9995
2 60237  61.9918 297.7484 0046001  44.0394 316.4346 15.01897490 40791
Curium One
1 60242U 24128H   25097.96792172  .00011888  00000-0  85318-3 0  9991
2 60242  61.9821 296.8880 0045758  39.6927 320.7498 15.03865362 40814
ROBUSTA-3A
1 60243U 24128J   25098.88357616  .00012706  00000-0  92106-3 0  9997
2 60243  61.9889 294.3201 0044224  37.6468 322.7704 15.03496590 40943
CatSat
1 60246U 24125J   25098.15332443  .00014432  00000-0  50354-3 0  9995
2 60246  97.2669 310.4302 0042563 317.9866  41.8111 15.28832555 40444
HYPERVIEW-1G (RS66S)
1 61772U 24199AP  25098.90675149  .00035521  00000-0  11311-2 0  9998
2 61772  97.3642 327.9855 0015876  58.8060 301.4736 15.32357915 67502
AO-123
1 61781U 24199AY  25098.88665045  .00012976  00000-0  48604-3 0  9994
2 61781  97.3651 327.4224 0017718  60.2404 300.0594 15.27259472 67468
ZIMSAT 2
1 61783U 24199BA  25098.86710467  .00051079  00000-0  14710-2 0  9990
2 61783  97.3630 328.1804 0016463  57.7659 302.5178 15.35449594 70664
HADES-R (SO-124)
1 62690U 25009CK  25098.47843291  .00057625  00000-0  23800-2 0  9991
2 62690  97.4123 179.7445 0002156 268.3953  91.7037 15.23796071 12672
HYDRA-T
1 62692U 25009CM  25098.47227039  .00058032  00000-0  23851-2 0  9998
2 62692  97.4123 179.7523 0002151 260.4913  99.6081 15.23959604 12674
JINJUSat 1B
1 63210U 25052A   25098.83945185  .00021886  00000-0  10529-2 0  9997
2 63210  97.4497 353.7948 0005024 151.4965 208.6545 15.18790812  3875
NUSHSAT 1
1 63211U 25052B   25098.90588593  .00023175  00000-0  11136-2 0  9990
2 63211  97.4489 353.8562 0004921 155.5055 204.6414 15.18819959  3886
TEVEL2-4
1 63213U 25052D   25098.57948521  .00022986  00000-0  11120-2 0  9998
2 63213  97.4405 353.5041 0003374 164.8699 195.2636 15.18591820  3833
TEVEL2-5
1 63214U 25052E   25098.57953880  .00022244  00000-0  10765-2 0  9994
2 63214  97.4404 353.5041 0003370 165.1049 195.0285 15.18585286  3839
TEVEL2-6
1 63215U 25052F   25098.90953570  .00022611  00000-0  10949-2 0  9990
2 63215  97.4406 353.8277 0003465 165.0390 195.0948 15.18562600  3885
TEVEL2-1
1 63217U 25052H   25098.58294347  .00021639  00000-0  10541-2 0  9993
2 63217  97.4380 353.4927 0002961 182.3600 177.7620 15.18364207  3834
TEVEL2-2
1 63218U 25052J   25098.78078827  .00022065  00000-0  10747-2 0  9991
2 63218  97.4381 353.6870 0003001 181.8119 178.3104 15.18364518  3862
TEVEL2-3
1 63219U 25052K   25098.58308529  .00022293  00000-0  10860-2 0  9994
2 63219  97.4380 353.4927 0002984 183.1195 177.0021 15.18356729  3837
TEVEL2-8
1 63237U 25052AD  25098.53480255  .00019858  00000-0  99943-3 0  9999
2 63237  97.4441 353.4229 0006909 220.1935 139.8788 15.17224741  3827
TEVEL2-9
1 63238U 25052AE  25098.53520433  .00019931  00000-0  10040-2 0  9995
2 63238  97.4443 353.4228 0006996 220.3284 139.7431 15.17192775  3829
TEVEL2-7
1 63239U 25052AF  25098.53570536  .00020040  00000-0  10105-2 0  9990
2 63239  97.4442 353.4217 0007011 220.6860 139.3851 15.17156033  3828
